Location: Bacharowice
(49.9333°N, 19.5833°E)
Time: 03:42:02
(UTC+00:00)

Cosmos 1782 - Pass Details

Date: 11 May 2021
Orbit: 537 x 550 km, 82.5° (Epoch: 22 June)

Event Time Altitude Azimuth Distance (km) Brightness Sun altitude
Exits shadow 18:47:35 - 164° (SSE) 2,661 5.8 -5.2°
Reaches altitude 10° 18:49:46 10° 154° (SSE) 1,817 4.9 -5.5°
Maximum altitude 18:53:19 32° 91° (E) 961 3.7 -5.9°
Drops below altitude 10° 18:56:54 10° 28° (NNE) 1,825 5.6 -6.4°
Sets 18:59:13 0° 19° (NNE) 2,720 6.6 -6.7°
